Location: *
(49.4547°N, 7.9131°E)
Time: 09:18:47
(UTC+00:00)

USA 186 - Pass Details

Date: 22 September 2019
Orbit: 261 x 450 km, 96.9° (Epoch: 07 October)

Event Time Altitude Azimuth Distance (km) Brightness Sun altitude
Exits shadow 19:36:54 12° 206° (SSW) 1,479 4.5 -21.1°
Maximum altitude 19:39:35 28° 265° (W) 886 3.9 -21.5°
Drops below altitude 10° 19:42:36 10° 326° (NW) 1,589 5.5 -22.0°
Sets 19:44:50 0° 338° (NNW) 2,453 6.4 -22.3°
